Time,TemperatureF,DewpointF,PressureIn,WindDirection,WindDirectionDegrees,WindSpeedMPH,WindSpeedGustMPH,Humidity,HourlyPrecipIn,Conditions,Clouds,dailyrainin,SolarRadiationWatts/m^2,SoftwareType,DateUTC
2013-06-25 00:01:00,70.0,66.0,29.93,WNW,293,0.0,2.0,88,0.00,,,-99.99,0.000000,,2013-06-25 04:01:00,
2013-06-25 00:02:00,70.0,66.0,29.93,WNW,293,0.0,2.0,88,0.00,,,-99.99,0.000000,,2013-06-25 04:02:00,
2013-06-25 00:11:00,70.0,66.0,29.93,WNW,293,0.0,2.0,88,0.00,,,-99.99,0.000000,,2013-06-25 04:11:00,
2013-06-25 00:22:00,69.0,66.0,29.96,West,267,1.0,2.0,90,0.00,,,-99.99,0.000000,,2013-06-25 04:22:00,
2013-06-25 00:43:00,69.0,66.0,29.95,ESE,120,0.0,0.0,90,0.00,,,-99.99,0.000000,,2013-06-25 04:43:00,
2013-06-25 00:52:00,69.0,66.0,29.95,ESE,120,0.0,0.0,90,0.00,,,-99.99,0.000000,,2013-06-25 04:52:00,
2013-06-25 01:01:00,69.0,66.0,29.95,ESE,120,0.0,0.0,90,0.00,,,-99.99,0.000000,,2013-06-25 05:01:00,
2013-06-25 01:11:00,68.0,66.0,29.95,WSW,250,0.0,1.0,92,0.00,,,-99.99,0.000000,,2013-06-25 05:11:00,
2013-06-25 01:22:00,68.0,66.0,29.96,NE,41,0.0,2.0,92,0.00,,,-99.99,0.000000,,2013-06-25 05:22:00,
2013-06-25 01:32:00,68.0,66.0,29.96,NE,41,0.0,2.0,92,0.00,,,-99.99,0.000000,,2013-06-25 05:32:00,
2013-06-25 01:44:00,68.0,66.0,29.95,WNW,294,1.0,2.0,93,0.00,,,-99.99,0.000000,,2013-06-25 05:44:00,
2013-06-25 01:52:00,68.0,66.0,29.95,WNW,293,0.0,1.0,93,0.00,,,-99.99,0.000000,,2013-06-25 05:52:00,
2013-06-25 02:01:00,68.0,66.0,29.95,WNW,293,0.0,1.0,93,0.00,,,-99.99,0.000000,,2013-06-25 06:01:00,
2013-06-25 02:11:00,68.0,66.0,29.94,West,276,0.0,0.0,93,0.00,,,-99.99,0.000000,,2013-06-25 06:11:00,
2013-06-25 02:22:00,68.0,66.0,29.94,West,276,0.0,0.0,93,0.00,,,-99.99,0.000000,,2013-06-25 06:22:00,
2013-06-25 02:33:00,68.0,66.0,29.94,West,276,0.0,0.0,93,0.00,,,-99.99,0.000000,,2013-06-25 06:33:00,
2013-06-25 02:40:00,66.0,65.0,29.93,West,276,0.0,0.0,95,0.00,,,-99.99,0.000000,,2013-06-25 06:40:00,
2013-06-25 02:43:00,67.0,65.0,29.94,West,276,0.0,0.0,94,0.00,,,-99.99,0.000000,,2013-06-25 06:43:00,
2013-06-25 02:52:00,67.0,65.0,29.93,West,276,0.0,0.0,94,0.00,,,-99.99,0.000000,,2013-06-25 06:52:00,
2013-06-25 03:11:00,66.0,65.0,29.93,West,276,0.0,0.0,95,0.00,,,-99.99,0.000000,,2013-06-25 07:11:00,
2013-06-25 03:22:00,66.0,65.0,29.93,West,276,0.0,0.0,95,0.00,,,-99.99,0.000000,,2013-06-25 07:22:00,
2013-06-25 03:33:00,66.0,65.0,29.93,West,276,0.0,0.0,95,0.00,,,-99.99,0.000000,,2013-06-25 07:33:00,
2013-06-25 03:52:00,67.0,66.0,29.92,West,275,0.0,0.0,95,0.00,,,-99.99,0.000000,,2013-06-25 07:52:00,
2013-06-25 04:02:00,67.0,66.0,29.92,West,275,0.0,0.0,95,0.00,,,-99.99,0.000000,,2013-06-25 08:02:00,
2013-06-25 04:11:00,67.0,66.0,29.92,West,275,0.0,0.0,95,0.00,,,-99.99,0.000000,,2013-06-25 08:11:00,
2013-06-25 04:34:00,67.0,65.0,29.92,West,276,0.0,0.0,94,0.00,,,-99.99,0.000000,,2013-06-25 08:34:00,
2013-06-25 04:43:00,67.0,65.0,29.92,West,276,0.0,0.0,94,0.00,,,-99.99,0.000000,,2013-06-25 08:43:00,
2013-06-25 04:53:00,67.0,65.0,29.92,West,276,0.0,0.0,93,0.00,,,-99.99,0.000000,,2013-06-25 08:53:00,
2013-06-25 05:02:00,67.0,65.0,29.92,West,276,0.0,0.0,93,0.00,,,-99.99,0.000000,,2013-06-25 09:02:00,
2013-06-25 05:22:00,67.0,65.0,29.92,West,276,0.0,0.0,94,0.00,,,-99.99,0.000000,,2013-06-25 09:22:00,
2013-06-25 05:33:00,67.0,65.0,29.92,West,276,0.0,0.0,94,0.00,,,-99.99,0.000000,,2013-06-25 09:33:00,
2013-06-25 05:43:00,67.0,65.0,29.92,West,276,0.0,0.0,93,0.00,,,-99.99,0.000000,,2013-06-25 09:43:00,
2013-06-25 05:52:00,67.0,65.0,29.92,West,276,0.0,0.0,93,0.00,,,-99.99,0.000000,,2013-06-25 09:52:00,
2013-06-25 06:00:00,67.0,65.0,29.92,West,276,0.0,0.0,93,0.00,,,-99.99,0.000000,,2013-06-25 10:00:00,
2013-06-25 06:22:00,67.0,65.0,29.92,West,276,0.0,0.0,93,0.00,,,-99.99,0.000000,,2013-06-25 10:22:00,
2013-06-25 06:33:00,67.0,65.0,29.92,West,276,0.0,0.0,93,0.00,,,-99.99,0.000000,,2013-06-25 10:33:00,
2013-06-25 06:42:00,67.0,65.0,29.92,West,276,0.0,0.0,93,0.00,,,-99.99,0.000000,,2013-06-25 10:42:00,
2013-06-25 06:52:00,67.0,65.0,29.92,West,276,0.0,0.0,93,0.00,,,-99.99,0.000000,,2013-06-25 10:52:00,
2013-06-25 07:12:00,67.0,65.0,29.92,West,276,0.0,0.0,93,0.00,,,-99.99,0.000000,,2013-06-25 11:12:00,
2013-06-25 07:22:00,67.0,65.0,29.92,West,276,0.0,0.0,93,0.00,,,-99.99,0.000000,,2013-06-25 11:22:00,
2013-06-25 07:34:00,69.0,67.0,29.93,SSE,155,0.0,0.0,94,0.00,,,-99.99,0.000000,,2013-06-25 11:34:00,
2013-06-25 07:43:00,69.0,67.0,29.93,SSE,155,0.0,0.0,94,0.00,,,-99.99,0.000000,,2013-06-25 11:43:00,
2013-06-25 07:52:00,70.0,68.0,29.92,South,172,0.0,2.0,93,0.00,,,-99.99,0.000000,,2013-06-25 11:52:00,
2013-06-25 08:02:00,71.0,69.0,29.92,SSE,155,0.0,1.0,92,0.00,,,-99.99,0.000000,,2013-06-25 12:02:00,
2013-06-25 08:22:00,72.0,69.0,29.92,SE,145,0.0,0.0,90,0.00,,,-99.99,0.000000,,2013-06-25 12:22:00,
2013-06-25 08:33:00,72.0,69.0,29.92,SE,145,0.0,0.0,90,0.00,,,-99.99,0.000000,,2013-06-25 12:33:00,
2013-06-25 08:43:00,73.0,69.0,29.92,East,100,0.0,0.0,88,0.00,,,-99.99,0.000000,,2013-06-25 12:43:00,
2013-06-25 08:55:00,73.0,69.0,29.92,East,100,0.0,0.0,88,0.00,,,-99.99,0.000000,,2013-06-25 12:55:00,
2013-06-25 09:22:00,76.0,70.0,29.91,SSE,155,0.0,3.0,81,0.00,,,-99.99,0.000000,,2013-06-25 13:22:00,
2013-06-25 09:40:00,78.0,71.0,29.91,SSW,195,0.0,3.0,79,0.00,,,-99.99,0.000000,,2013-06-25 13:40:00,
2013-06-25 09:42:00,78.0,71.0,29.91,East,90,0.0,2.0,79,0.00,,,-99.99,0.000000,,2013-06-25 13:42:00,
2013-06-25 09:53:00,78.0,71.0,29.91,East,90,0.0,2.0,79,0.00,,,-99.99,0.000000,,2013-06-25 13:53:00,
2013-06-25 10:02:00,78.0,71.0,29.91,SSW,195,0.0,3.0,79,0.00,,,-99.99,0.000000,,2013-06-25 14:02:00,
2013-06-25 10:11:00,78.0,71.0,29.91,SSW,195,0.0,3.0,79,0.00,,,-99.99,0.000000,,2013-06-25 14:11:00,
2013-06-25 10:23:00,78.0,71.0,29.91,SSW,195,0.0,3.0,79,0.00,,,-99.99,0.000000,,2013-06-25 14:23:00,
2013-06-25 10:34:00,78.0,71.0,29.91,SSW,195,0.0,3.0,79,0.00,,,-99.99,0.000000,,2013-06-25 14:34:00,
2013-06-25 11:11:00,81.0,73.0,29.91,West,267,1.0,3.0,78,0.00,,,-99.99,0.000000,,2013-06-25 15:11:00,
2013-06-25 11:22:00,82.0,74.0,29.91,SE,136,0.0,2.0,78,0.00,,,-99.99,0.000000,,2013-06-25 15:22:00,
2013-06-25 11:32:00,82.0,74.0,29.91,South,177,1.0,4.0,76,0.00,,,-99.99,0.000000,,2013-06-25 15:32:00,
2013-06-25 11:44:00,82.0,74.0,29.91,South,177,1.0,4.0,76,0.00,,,-99.99,0.000000,,2013-06-25 15:44:00,
2013-06-25 11:53:00,84.0,74.0,29.91,NW,315,1.0,4.0,71,0.00,,,-99.99,0.000000,,2013-06-25 15:53:00,
2013-06-25 12:03:00,84.0,74.0,29.91,NW,315,1.0,4.0,71,0.00,,,-99.99,0.000000,,2013-06-25 16:03:00,
2013-06-25 12:35:00,87.0,74.0,29.90,WSW,256,0.0,3.0,65,0.00,,,-99.99,0.000000,,2013-06-25 16:35:00,
2013-06-25 12:44:00,88.0,73.0,29.89,SW,224,1.0,3.0,62,0.00,,,-99.99,0.000000,,2013-06-25 16:44:00,
2013-06-25 12:52:00,88.0,73.0,29.89,SW,224,1.0,3.0,62,0.00,,,-99.99,0.000000,,2013-06-25 16:52:00,
2013-06-25 13:01:00,88.0,73.0,29.89,SW,224,1.0,3.0,62,0.00,,,-99.99,0.000000,,2013-06-25 17:01:00,
2013-06-25 13:11:00,88.0,73.0,29.89,SW,224,1.0,3.0,62,0.00,,,-99.99,0.000000,,2013-06-25 17:11:00,
2013-06-25 13:34:00,90.0,75.0,29.88,SSE,154,1.0,5.0,61,0.00,,,-99.99,0.000000,,2013-06-25 17:34:00,
2013-06-25 13:44:00,91.0,76.0,29.87,SE,131,0.0,2.0,61,0.00,,,-99.99,0.000000,,2013-06-25 17:44:00,
2013-06-25 13:53:00,90.0,76.0,29.86,SSW,212,1.0,3.0,63,0.00,,,-99.99,0.000000,,2013-06-25 17:53:00,
2013-06-25 14:02:00,90.0,76.0,29.86,West,270,1.0,3.0,64,0.00,,,-99.99,0.000000,,2013-06-25 18:02:00,
2013-06-25 14:12:00,90.0,75.0,29.86,South,169,1.0,4.0,61,0.00,,,-99.99,0.000000,,2013-06-25 18:12:00,
2013-06-25 14:23:00,90.0,75.0,29.86,South,169,1.0,4.0,61,0.00,,,-99.99,0.000000,,2013-06-25 18:23:00,
2013-06-25 14:34:00,90.0,75.0,29.86,South,169,1.0,4.0,61,0.00,,,-99.99,0.000000,,2013-06-25 18:34:00,
2013-06-25 14:44:00,90.0,75.0,29.84,NNW,334,1.0,4.0,62,0.00,,,-99.99,0.000000,,2013-06-25 18:44:00,
2013-06-25 14:53:00,90.0,75.0,29.84,NNW,334,1.0,4.0,62,0.00,,,-99.99,0.000000,,2013-06-25 18:53:00,
2013-06-25 15:01:00,90.0,75.0,29.84,NNW,334,1.0,4.0,62,0.00,,,-99.99,0.000000,,2013-06-25 19:01:00,
2013-06-25 15:23:00,88.0,76.0,29.83,SSW,210,1.0,3.0,68,0.00,,,-99.99,0.000000,,2013-06-25 19:23:00,
2013-06-25 15:44:00,88.0,76.0,29.82,WSW,243,2.0,6.0,67,0.00,,,-99.99,0.000000,,2013-06-25 19:44:00,
2013-06-25 15:53:00,88.0,76.0,29.82,WSW,243,2.0,6.0,67,0.00,,,-99.99,0.000000,,2013-06-25 19:53:00,
2013-06-25 16:11:00,87.0,72.0,29.80,WNW,285,1.0,8.0,62,0.00,,,-99.99,0.000000,,2013-06-25 20:11:00,
2013-06-25 16:33:00,87.0,74.0,29.79,SE,139,2.0,7.0,65,0.00,,,-99.99,0.000000,,2013-06-25 20:33:00,
2013-06-25 16:42:00,87.0,74.0,29.78,SE,134,2.0,7.0,65,0.00,,,-99.99,0.000000,,2013-06-25 20:42:00,
2013-06-25 16:52:00,87.0,72.0,29.78,ESE,123,2.0,7.0,62,0.00,,,-99.99,0.000000,,2013-06-25 20:52:00,
2013-06-25 17:01:00,87.0,72.0,29.78,ESE,123,2.0,7.0,62,0.00,,,-99.99,0.000000,,2013-06-25 21:01:00,
2013-06-25 17:11:00,86.0,73.0,29.78,SE,139,2.0,9.0,66,0.00,,,-99.99,0.000000,,2013-06-25 21:11:00,
2013-06-25 17:22:00,86.0,73.0,29.78,SE,139,2.0,9.0,66,0.00,,,-99.99,0.000000,,2013-06-25 21:22:00,
2013-06-25 17:34:00,86.0,73.0,29.78,SE,139,2.0,9.0,66,0.00,,,-99.99,0.000000,,2013-06-25 21:34:00,
2013-06-25 17:43:00,84.0,73.0,29.77,ESE,113,2.0,10.0,70,0.00,,,-99.99,0.000000,,2013-06-25 21:43:00,
2013-06-25 17:53:00,84.0,74.0,29.77,ESE,123,2.0,7.0,72,0.00,,,-99.99,0.000000,,2013-06-25 21:53:00,
2013-06-25 18:01:00,84.0,74.0,29.77,ESE,123,2.0,7.0,72,0.00,,,-99.99,0.000000,,2013-06-25 22:01:00,
2013-06-25 18:11:00,83.0,74.0,29.77,WSW,252,2.0,6.0,74,0.00,,,-99.99,0.000000,,2013-06-25 22:11:00,
2013-06-25 18:34:00,82.0,74.0,29.77,East,101,1.0,5.0,78,0.00,,,-99.99,0.000000,,2013-06-25 22:34:00,
2013-06-25 18:42:00,80.0,73.0,29.77,East,101,1.0,4.0,80,0.00,,,-99.99,0.000000,,2013-06-25 22:42:00,
2013-06-25 18:52:00,80.0,73.0,29.77,SSE,163,1.0,2.0,80,0.00,,,-99.99,0.000000,,2013-06-25 22:52:00,
2013-06-25 19:01:00,80.0,73.0,29.76,South,173,1.0,5.0,80,0.00,,,-99.99,0.000000,,2013-06-25 23:01:00,
2013-06-25 19:11:00,80.0,73.0,29.76,South,173,1.0,5.0,80,0.00,,,-99.99,0.000000,,2013-06-25 23:11:00,
2013-06-25 19:22:00,80.0,73.0,29.76,South,173,1.0,5.0,80,0.00,,,-99.99,0.000000,,2013-06-25 23:22:00,
2013-06-25 19:34:00,80.0,73.0,29.76,South,173,1.0,5.0,80,0.00,,,-99.99,0.000000,,2013-06-25 23:34:00,
2013-06-25 19:44:00,79.0,73.0,29.75,South,191,1.0,3.0,81,0.00,,,-99.99,0.000000,,2013-06-25 23:44:00,
2013-06-25 19:52:00,79.0,73.0,29.75,South,191,1.0,3.0,81,0.00,,,-99.99,0.000000,,2013-06-25 23:52:00,
2013-06-25 20:02:00,79.0,73.0,29.75,NNW,338,0.0,1.0,81,0.00,,,-99.99,0.000000,,2013-06-26 00:02:00,
2013-06-25 20:11:00,79.0,73.0,29.75,NNW,338,0.0,1.0,81,0.00,,,-99.99,0.000000,,2013-06-26 00:11:00,
2013-06-25 20:22:00,79.0,73.0,29.75,NNW,335,0.0,0.0,82,0.00,,,-99.99,0.000000,,2013-06-26 00:22:00,
2013-06-25 20:33:00,79.0,73.0,29.75,NNW,335,0.0,0.0,82,0.00,,,-99.99,0.000000,,2013-06-26 00:33:00,
2013-06-25 20:42:00,77.0,72.0,29.75,ESE,118,0.0,1.0,84,0.00,,,-99.99,0.000000,,2013-06-26 00:42:00,
2013-06-25 20:53:00,77.0,72.0,29.75,ESE,118,0.0,1.0,84,0.00,,,-99.99,0.000000,,2013-06-26 00:53:00,
2013-06-25 21:01:00,76.0,71.0,29.75,ESE,117,0.0,1.0,85,0.00,,,-99.99,0.000000,,2013-06-26 01:01:00,
2013-06-25 21:11:00,76.0,71.0,29.75,ESE,117,0.0,1.0,85,0.00,,,-99.99,0.000000,,2013-06-26 01:11:00,
2013-06-25 21:33:00,76.0,72.0,29.75,East,85,0.0,2.0,87,0.00,,,-99.99,0.000000,,2013-06-26 01:33:00,
2013-06-25 21:43:00,76.0,71.0,29.75,East,99,1.0,3.0,85,0.00,,,-99.99,0.000000,,2013-06-26 01:43:00,
2013-06-25 22:02:00,76.0,72.0,29.75,West,277,0.0,0.0,88,0.00,,,-99.99,0.000000,,2013-06-26 02:02:00,
2013-06-25 22:11:00,76.0,72.0,29.75,West,277,0.0,0.0,88,0.00,,,-99.99,0.000000,,2013-06-26 02:11:00,
2013-06-25 22:22:00,75.0,72.0,29.76,East,97,0.0,0.0,89,0.00,,,-99.99,0.000000,,2013-06-26 02:22:00,
2013-06-25 22:43:00,75.0,71.0,29.77,NE,56,0.0,0.0,88,0.00,,,-99.99,0.000000,,2013-06-26 02:43:00,
2013-06-25 22:53:00,75.0,71.0,29.77,NE,56,0.0,0.0,88,0.00,,,-99.99,0.000000,,2013-06-26 02:53:00,
2013-06-25 23:02:00,75.0,71.0,29.77,NE,56,0.0,0.0,88,0.00,,,-99.99,0.000000,,2013-06-26 03:02:00,
2013-06-25 23:33:00,73.0,70.0,29.78,NE,56,0.0,0.0,91,0.00,,,-99.99,0.000000,,2013-06-26 03:33:00,
2013-06-25 23:43:00,73.0,71.0,29.78,NE,56,0.0,0.0,93,0.00,,,-99.99,0.000000,,2013-06-26 03:43:00,
2013-06-25 23:52:00,73.0,71.0,29.78,NE,56,0.0,0.0,93,0.00,,,-99.99,0.000000,,2013-06-26 03:52:00,